Location: Mason Neck State Park
(38.6428°N, 77.1981°W)
Time: 09:57:42
(UTC-05:00)

Cosmos 2278 Rocket - Visible Passes

Search period start: 22 December 2014 00:00
Search period end: 01 January 2015 00:00
Orbit: 841 x 846 km, 71.0° (Epoch: 21 December)

Date Brightness Start Highest point End Pass type
(mag) Time Alt. Az. Time Alt. Az. Time Alt. Az.
22 Dec 4.1 05:35:22 10° N 05:39:59 25° ENE 05:44:35 10° ESE visible
23 Dec 4.2 05:20:56 10° N 05:25:28 24° NE 05:29:59 10° ESE visible
24 Dec 4.2 05:06:30 10° N 05:10:58 23° NE 05:15:24 10° ESE visible
24 Dec 2.5 06:49:52 10° NNW 06:55:19 50° WSW 07:00:44 10° S visible
25 Dec 4.3 04:52:16 11° N 04:56:27 22° NE 05:00:48 10° ESE visible
25 Dec 2.4 06:35:21 10° NNW 06:40:50 52° WSW 06:46:18 10° S visible
25 Dec 4.5 19:41:24 10° S 19:41:51 12° S 19:41:51 12° S visible
26 Dec 4.3 04:38:39 14° NNE 04:41:56 22° NE 04:46:12 10° ESE visible
26 Dec 2.4 06:20:51 10° NNW 06:26:22 55° WSW 06:31:51 10° S visible
26 Dec 3.9 19:26:58 10° S 19:28:46 21° S 19:28:46 21° S visible
27 Dec 4.3 04:25:06 16° NNE 04:27:25 21° NE 04:31:35 10° ESE visible
27 Dec 2.3 06:07:00 13° NNW 06:11:53 57° WSW 06:17:24 10° S visible
27 Dec 3.2 19:12:31 10° S 19:15:41 32° SSE 19:15:41 32° SSE visible
28 Dec 4.3 04:11:38 19° NE 04:12:54 20° NE 04:16:58 10° E visible
28 Dec 2.2 05:53:32 20° NW 05:57:24 60° WSW 06:02:57 10° S visible
28 Dec 2.6 18:58:05 10° S 19:02:35 43° SE 19:02:35 43° SE visible
28 Dec 4.7 20:43:12 10° WSW 20:44:31 15° W 20:44:31 15° W visible
29 Dec 4.4 03:58:15 19° NE 03:58:23 19° NE 04:02:20 10° E visible
29 Dec 2.2 05:40:09 30° NW 05:42:56 63° WSW 05:48:29 10° S visible
29 Dec 2.4 18:43:39 10° S 18:48:57 45° ESE 18:49:28 43° E visible
29 Dec 4.3 20:28:36 10° WSW 20:31:23 22° W 20:31:23 22° W visible
30 Dec 4.6 03:44:56 18° ENE 03:44:56 18° ENE 03:47:43 10° E visible
30 Dec 2.1 05:26:51 46° NW 05:28:27 66° WSW 05:34:02 10° S visible
30 Dec 2.5 18:29:13 10° S 18:34:29 43° ESE 18:36:17 33° ENE visible
30 Dec 4.0 20:14:01 10° WSW 20:18:12 26° WNW 20:18:12 26° WNW visible
31 Dec 4.9 03:31:42 14° E 03:31:42 14° E 03:33:04 10° E visible
31 Dec 2.0 05:13:37 67° W 05:13:58 69° WSW 05:19:34 10° SSE visible
31 Dec 2.6 18:14:47 10° S 18:20:00 41° ESE 18:23:02 23° NE visible
31 Dec 3.9 19:59:26 10° WSW 20:04:11 27° WNW 20:04:57 27° NW visible
